Weather in Greshnevo

Russia / Yaroslavl Oblast     57°42′27″N   40°12′47″E
temp.,
°C
wind,
m/s
gust,
m/s
humid.,
%
clouds,
%
prec.,
mm/h
press.,
hPa
HPBL,
m
9 march, tue
tue900:00−15nnw349581 0.0 100973
03:00−19nnw459759 0.0 101180
06:00−22n349710 0.0 101341
09:00−21n369529 0.0 1015252
12:00−17n359086 0.0 1016423
15:00−15nnw468893 0.1 1017619
18:00−18nnw4792100 0.1 1019211
21:00−21n479798 0.1 1022138
10 march, wed
wed1000:00−24n469665 0.0 1023104
03:00−27n359632 0.0 102578
06:00−29n34960 0.0 102653
09:00−25nnw34920 0.0 1028175
12:00−17wnw34810 0.0 1027363
15:00−14wnw588430 0.0 1027657
18:00−19nw469494 0.0 102794
21:00−20nw349883 0.0 102845
11 march, thu
thu1100:00−21nw33970 0.0 103023
03:00−21nw33970 0.0 103122
06:00−22wnw33989 0.0 103120
09:00−18wnw35955 0.0 1032146
12:00−12wnw348849 0.0 1031322
15:00−10w348973 0.0 1031424
18:00−13wsw339368 0.0 103023
21:00−16wsw349551 0.0 103135
12 march, fri
fri1200:00−18sw34960 0.0 103147
03:00−18sw46920 0.0 103087
06:00−19sw47920 0.0 1029104
09:00−16sw510831 0.0 1029275
12:00−11sw597714 0.0 1028440
15:00−8ssw610777 0.0 1027621
18:00−11ssw410830 0.0 1026211
21:00−13s512870 0.0 1026276
13 march, sat
sat1300:00−15s412900 0.0 1025271
03:00−17s512890 0.0 1024261
06:00−17s512880 0.0 1023262
09:00−13s612840 0.0 1022500
12:00−9s7128867 0.0 1020746
15:00−7s8129383 0.6 1018861
18:00−6s61194100 0.6 1016632
21:00−5s61294100 1.1 1016474